Regional Weather Roundup
Issued by NWS

Home | Current Version | Previous Version | Text Only | Print | Product List | Glossary Off
Versions: 1 2 3 4 5 6 7 8 9 10 11 12 13 14 15 16 17 18 19 20 21 22 23 24 25 26 27 28 29 30 31 32 33 34 35 36 37 38 39 40 41 42 43 44 45 46 47 48 49 50

545
ASUS45 KPSR 240210
RWRAZ

ARIZONA HOURLY REGIONAL WEATHER ROUNDUP
NATIONAL WEATHER SERVICE PHOENIX AZ
700 PM MST WED AUG 23 2017

NOTE: FAIR INDICATES FEW OR NO CLOUDS BELOW 12,000 FEET WITH NO
SIGNIFICANT WEATHER AND/OR OBSTRUCTIONS TO VISIBILITY.

AZZ001>003-036-240300-
NORTHWEST ARIZONA

CITY           SKY/WX    TMP DP  RH WIND       PRES   REMARKS
KINGMAN        CLEAR     90  46  21 SW8       29.94S
$$

AZZ004>008-015-016-018-240300-
NORTH CENTRAL ARIZONA

CITY           SKY/WX    TMP DP  RH WIND       PRES   REMARKS
GRAND CANYON   MOCLDY    68  57  68 CALM      30.21S
WILLIAMS       PTCLDY    72  46  40 SW3       30.22R
PRESCOTT       PTCLDY    82  49  31 SW7       30.08S
FLAGSTAFF      MOCLDY    72  47  40 W3        30.25R
PAYSON           N/A     84  46  26 SW7G16    30.11R
PAGE           PTCLDY    91  39  16 CALM      29.96S
$$

AZZ009>014-017-240300-
NORTHEAST ARIZONA

CITY           SKY/WX    TMP DP  RH WIND       PRES   REMARKS
WINSLOW        LGT RAIN  74  59  59 SW18G25   30.11R
SAINT JOHNS    CLOUDY    71  49  45 SW28G36   30.18R
WINDOW ROCK    CLOUDY    69  56  62 NE7       30.21S
SHOW LOW       RAIN      61  55  82 SE7       30.31R
$$

AZZ540-542>544-546-548-240300-
GREATER PHOENIX AREA

CITY           SKY/WX    TMP DP  RH WIND       PRES   REMARKS
PHOENIX        BLWGDUST  92  62  36 S24G38    29.77R VSB 1
BUCKEYE        CLEAR     99  64  32 S7        29.75R HX 101
GLENDALE       MOCLDY   102  61  25 S12       29.76S HX 103
LUKE AFB       CLEAR     99  60  27 S14       29.74R
SCOTTSDALE     MOCLDY   101  55  21 S7        29.80R
MESA-FALCON    MOCLDY    97  63  32 S21G29    29.80R
MESA-GATEWAY   MOCLDY    93  63  36 S16       29.83R BLWGDUST
CHANDLER       MOCLDY    91  63  38 S23       29.81R BLWGDUST
$$

AZZ539-553-240300-
SOUTHWEST MARICOPA COUNTY AND PINAL COUNTY

CITY           SKY/WX    TMP DP  RH WIND       PRES   REMARKS
CASA GRANDE    CLOUDY    85  65  51 S22G29    29.86R
GILA BEND      MOCLDY    85  69  58 SE31G45   29.78R
$$

AZZ503-504-507>509-240300-
SOUTHEAST ARIZONA

CITY           SKY/WX    TMP DP  RH WIND       PRES   REMARKS
TUCSON         CLOUDY    73  66  78 SE8G22    29.98F
DAVIS-MONTHAN  DRIZZLE   71  66  84 E9        29.97F
RYAN FIELD     CLEAR     73  66  78 E8        29.99R
NOGALES        MOCLDY    69  66  90 E5        30.10R
SIERRA VISTA   LGT RAIN  66  61  81 S15       30.19R
DOUGLAS        LGT RAIN  66  64  93 NW12      30.13S
SAFFORD        CLOUDY    79  56  45 N8        30.03R
$$

AZZ532-240300-
SOUTHWEST ARIZONA

CITY           SKY/WX    TMP DP  RH WIND       PRES   REMARKS
YUMA           CLEAR    100  60  26 SW15      29.68S HX 100
$$

CAZ041-043-047-048-061-525>527-560>570-240300-
SOUTHERN CALIFORNIA

CITY           SKY/WX    TMP DP  RH WIND       PRES   REMARKS
DOWNTOWN L.A.  PTCLDY    70  61  73 W3        29.89S
L.A. AIRPORT   CLOUDY    67  62  84 W15       29.90S
SAN DIEGO      CLOUDY    68  61  78 VRB3      29.93S
BURBANK        CLEAR     71  59  65 S10       29.88S
ONTARIO        PTCLDY    75  60  59 SW14      29.88R
RIVERSIDE      CLEAR     76  60  57 W9        29.88R
PALM SPRINGS   CLEAR     98  57  25 W20G33    29.70F
EL CENTRO NAS  PTCLDY   102  55  20 SW9       29.67R HX 100
IMPERIAL       PTCLDY   103  60  24 SE16      29.64S HX 104
BLYTHE         CLEAR    103  57  21 S12       29.68S HX 102
$$

NVZ020-UTZ003-240300-
SOUTHERN NEVADA-UTAH

CITY           SKY/WX    TMP DP  RH WIND       PRES   REMARKS
LAS VEGAS      CLOUDY    94  40  15 W13G21    29.84F THUNDER
SALT LAKE CITY PTCLDY    86  45  23 N7        30.00F
$$

NMZ009-TXZ055-240300-
NEW MEXICO-WEST TEXAS

CITY           SKY/WX    TMP DP  RH WIND       PRES   REMARKS
ALBUQUERQUE    TSTM      78  47  33 W3        30.13R
EL PASO        CLOUDY    78  58  49 N6        30.03S
$$


........................KEY........................
SKY/WX - SKY CONDITION/WEATHER
TMP    - TEMPERATURE IN FAHRENHEIT
DP     - DEW POINT IN FAHRENHEIT
RH     - RELATIVE HUMIDITY IN PERCENT
WIND   - DIRECTION AND SPEED IN MILES PER HOUR (MPH)
VRB    - VARIABLE WIND DIRECTION
PRES   - MEAN SEA LEVEL PRESSURE IN INCHES OF MERCURY
         F - FALLING PRESSURE   R - RISING PRESSURE
         S - STEADY PRESSURE
VSB    - VISIBILITY IN MILES
HX     - HEAT INDEX IN FAHRENHEIT
WCI    - WIND CHILL INDEX IN FAHRENHEIT
TC     - TEMPERATURE IN CELSIUS WHICH IS ALSO KNOWN AS
         TEMPERATURE IN CENTIGRADE
AFB    - AIR FORCE BASE
         LUKE AFB IS LUKE AIR FORCE BASE
         DAVIS-MONTHAN IS DAVIS-MONTHAN AIR FORCE BASE
NAS    - NAVAL AIR STATION
         EL CENTRO NAS IS EL CENTRO NAVAL AIR STATION
N/A    - NOT AVAILABLE





USA.gov is the U.S. government's official web portal to all federal, state and local government web resources and services.